This is the latest recevied weather packets stored in our database for station/object F5LKO-13. If no packets are shown the sender has not sent any weather packets the latest 10 day(s).
| Time | Temp. | Humidity | Pressure | Rain* | Wind** | Luminosity | Snow |
|---|---|---|---|---|---|---|---|
| 1777817246 | 20.56° C | 99% | 1013.5 hPa | 0 mm | - | 2 W/m² | - |
| 1777816941 | 20.56° C | 99% | 1013.5 hPa | 0 mm | - | 2 W/m² | - |
| 1777816645 | 20.56° C | 99% | 1013.5 hPa | 0 mm | - | 4 W/m² | - |
| 1777816330 | 20.56° C | 99% | 1013.6 hPa | 0 mm | - | 4 W/m² | - |
| 1777816024 | 20° C | 99% | 1013.6 hPa | 0 mm | - | 2 W/m² | - |
| 1777815718 | 20° C | 99% | 1013.8 hPa | 0 mm | - | 2 W/m² | - |
| 1777815412 | 20° C | 99% | 1013.8 hPa | 0 mm | - | 2 W/m² | - |
| 1777815107 | 20° C | 99% | 1013.8 hPa | 0 mm | - | 2 W/m² | - |
| 1777814809 | 20° C | 99% | 1013.8 hPa | 0 mm | - | 1 W/m² | - |
| 1777814494 | 20° C | 99% | 1013.7 hPa | 0 mm | - | 0 W/m² | - |
| 1777814188 | 20.56° C | 99% | 1013.7 hPa | 0 mm | - | 0 W/m² | - |
| 1777813882 | 20.56° C | 99% | 1013.8 hPa | 0 mm | - | 0 W/m² | - |
| 1777813577 | 20.56° C | 99% | 1013.8 hPa | 0 mm | - | 0 W/m² | - |
| 1777813271 | 20.56° C | 99% | 1013.9 hPa | 0 mm | - | 0 W/m² | - |
| 1777812975 | 21.11° C | 99% | 1013.9 hPa | 0 mm | - | 0 W/m² | - |
| 1777812660 | 21.11° C | 99% | 1013.9 hPa | 0 mm | - | 1 W/m² | - |
| 1777812355 | 21.11° C | 99% | 1013.9 hPa | 0 mm | - | 1 W/m² | - |
| 1777812049 | 21.67° C | 99% | 1013.9 hPa | 0 mm | - | 1 W/m² | - |
| 1777811744 | 22.78° C | 99% | 1014 hPa | 0 mm | - | 1 W/m² | - |
| 1777811438 | 22.22° C | 99% | 1014.1 hPa | 0 mm | - | 2 W/m² | - |
| 1777811140 | 22.78° C | 99% | 1014.1 hPa | 0 mm | - | 5 W/m² | - |
| 1777810825 | 22.78° C | 99% | 1014 hPa | 0 mm | - | 5 W/m² | - |
| 1777810519 | 22.78° C | 99% | 1014.1 hPa | 0 mm | - | 4 W/m² | - |
| 1777810213 | 23.33° C | 99% | 1014.1 hPa | 0 mm | - | 4 W/m² | - |
| 1777809907 | 23.33° C | 99% | 1014.1 hPa | 0 mm | - | 5 W/m² | - |
* Rain latest hour (hover to see other rain measurements)
** Current wind speed in m/s (hover to see current wind gust speed)